| time (UTC) | temp F | wind direction | speed MPH | gust MPH | rain 1hr in | rain 24hr in | rain mn in | humidity % | barometer mb |
| 20260902162249 | 93 | 188 | 5.0 | 12.0 | 0.00 | 0.00 | 0.00 | 61 | 1015.1 |
| 20260902161749 | 93 | 229 | 5.0 | 12.0 | 0.00 | 0.00 | 0.00 | 60 | 1015.5 |
| 20260902161248 | 93 | 211 | 4.0 | 12.0 | 0.00 | 0.00 | 0.00 | 62 | 1015.4 |
| 20260902160748 | 93 | 197 | 6.0 | 12.0 | 0.00 | 0.00 | 0.00 | 62 | 1015.2 |
| 20260902160248 | 92 | 206 | 4.0 | 12.0 | 0.00 | 0.00 | 0.00 | 62 | 1015.2 |
| 20260902155232 | 92 | 189 | 5.0 | 11.0 | 0.00 | 0.00 | 0.00 | 63 | 1015.1 |
| 20260902154731 | 92 | 215 | 5.0 | 12.0 | 0.00 | 0.00 | 0.00 | 64 | 1015.3 |
| 20260902154231 | 92 | 214 | 4.0 | 12.0 | 0.00 | 0.00 | 0.00 | 65 | 1015.4 |
| 20260902153731 | 91 | 202 | 3.0 | 12.0 | 0.00 | 0.00 | 0.00 | 67 | 1015.5 |
| 20260902153230 | 91 | 198 | 4.0 | 12.0 | 0.00 | 0.00 | 0.00 | 66 | 1015.4 |
| 20260902152729 | 91 | 200 | 3.0 | 12.0 | 0.00 | 0.00 | 0.00 | 66 | 1015.6 |
| 20260902152230 | 90 | 197 | 3.0 | 12.0 | 0.00 | 0.00 | 0.00 | 67 | 1015.6 |
| 20260902151729 | 90 | 187 | 4.0 | 12.0 | 0.00 | 0.00 | 0.00 | 68 | 1015.2 |
| 20260902151226 | 90 | 198 | 4.0 | 12.0 | 0.00 | 0.00 | 0.00 | 68 | 1015.4 |
| 20260902150726 | 89 | 204 | 3.0 | 12.0 | 0.00 | 0.00 | 0.00 | 69 | 1015.2 |
| 20260902150225 | 89 | 197 | 4.0 | 12.0 | 0.00 | 0.00 | 0.00 | 69 | 1015.4 |
| 20260902145724 | 89 | 207 | 4.0 | 12.0 | 0.00 | 0.00 | 0.00 | 69 | 1015.3 |
| 20260902145224 | 89 | 206 | 3.0 | 12.0 | 0.00 | 0.00 | 0.00 | 70 | 1015.1 |
| 20260902144723 | 88 | 199 | 5.0 | 12.0 | 0.00 | 0.00 | 0.00 | 69 | 1015.2 |
| 20260902144223 | 88 | 207 | 2.0 | 12.0 | 0.00 | 0.00 | 0.00 | 70 | 1015.2 |
| 20260902143206 | 87 | 205 | 3.0 | 12.0 | 0.00 | 0.00 | 0.00 | 72 | 1015.4 |
| 20260902142705 | 86 | 227 | 4.0 | 12.0 | 0.00 | 0.00 | 0.00 | 73 | 1015.5 |
| 20260902142205 | 86 | 212 | 4.0 | 12.0 | 0.00 | 0.00 | 0.00 | 73 | 1015.4 |
| 20260902141704 | 86 | 209 | 3.0 | 12.0 | 0.00 | 0.00 | 0.00 | 74 | 1015.2 |
| 20260902141204 | 85 | 203 | 2.0 | 12.0 | 0.00 | 0.00 | 0.00 | 75 | 1015.5 |
| 20260902140703 | 85 | 209 | 3.0 | 12.0 | 0.00 | 0.00 | 0.00 | 76 | 1015.9 |
| 20260902140202 | 84 | 204 | 3.0 | 12.0 | 0.00 | 0.00 | 0.00 | 76 | 1015.4 |
| 20260902135702 | 84 | 205 | 3.0 | 12.0 | 0.00 | 0.00 | 0.00 | 77 | 1015.7 |
| 20260902135201 | 83 | 210 | 3.0 | 12.0 | 0.00 | 0.00 | 0.00 | 77 | 1015.7 |
| 20260902134144 | 83 | 214 | 2.0 | 12.0 | 0.00 | 0.00 | 0.00 | 78 | 1016.1 |
| 20260902133643 | 82 | 210 | 4.0 | 12.0 | 0.00 | 0.00 | 0.00 | 78 | 1015.7 |
| 20260902132626 | 81 | 216 | 2.0 | 12.0 | 0.00 | 0.00 | 0.00 | 80 | 1015.6 |
| 20260902132125 | 81 | 197 | 3.0 | 12.0 | 0.00 | 0.00 | 0.00 | 80 | 1015.7 |
| 20260902131109 | 80 | 198 | 2.0 | 12.0 | 0.00 | 0.00 | 0.00 | 82 | 1015.6 |
| 20260902130609 | 80 | 185 | 2.0 | 12.0 | 0.00 | 0.00 | 0.00 | 82 | 1015.6 |
| 20260902130109 | 79 | 188 | 1.0 | 12.0 | 0.00 | 0.00 | 0.00 | 83 | 1015.4 |
| 20260902125608 | 79 | 182 | 1.0 | 12.0 | 0.00 | 0.00 | 0.00 | 84 | 1015.8 |
| 20260902125107 | 78 | 199 | 1.0 | 12.0 | 0.00 | 0.00 | 0.00 | 85 | 1015.7 |
| 20260902124606 | 78 | 191 | 2.0 | 12.0 | 0.00 | 0.00 | 0.00 | 85 | 1015.5 |
| 20260902123551 | 77 | 203 | 2.0 | 12.0 | 0.00 | 0.00 | 0.00 | 87 | 1015.5 |
| 20260902122535 | 76 | 178 | 2.0 | 12.0 | 0.00 | 0.00 | 0.00 | 87 | 1015.7 |
| 20260902122035 | 76 | 189 | 2.0 | 12.0 | 0.00 | 0.00 | 0.00 | 88 | 1015.4 |
| 20260902121535 | 76 | 192 | 1.0 | 12.0 | 0.00 | 0.00 | 0.00 | 88 | 1015.5 |
| 20260902121035 | 76 | 192 | 1.0 | 12.0 | 0.00 | 0.00 | 0.00 | 89 | 1015.5 |
| 20260902120534 | 76 | 192 | 1.0 | 12.0 | 0.00 | 0.00 | 0.00 | 89 | 1015.6 |
| 20260902120033 | 75 | 192 | 1.0 | 12.0 | 0.00 | 0.00 | 0.00 | 89 | 1015.3 |
| 20260902115533 | 75 | 191 | 1.0 | 12.0 | 0.00 | 0.00 | 0.00 | 89 | 1015.6 |
| 20260902115032 | 75 | 191 | 1.0 | 12.0 | 0.00 | 0.00 | 0.00 | 89 | 1015.5 |
| 20260902114531 | 75 | 192 | 1.0 | 12.0 | 0.00 | 0.00 | 0.00 | 89 | 1015.4 |
| 20260902114031 | 75 | 192 | 0.0 | 12.0 | 0.00 | 0.00 | 0.00 | 89 | 1015.7 |
| 20260902113531 | 75 | 192 | 0.0 | 12.0 | 0.00 | 0.00 | 0.00 | 89 | 1015.2 |
| 20260902113031 | 75 | 192 | 0.0 | 12.0 | 0.00 | 0.00 | 0.00 | 89 | 1015.1 |
| 20260902112531 | 75 | 192 | 0.0 | 12.0 | 0.00 | 0.00 | 0.00 | 89 | 1015.1 |
| 20260902112030 | 75 | 192 | 0.0 | 12.0 | 0.00 | 0.00 | 0.00 | 89 | 1015.1 |
| 20260902111530 | 75 | 192 | 0.0 | 12.0 | 0.00 | 0.00 | 0.00 | 89 | 1014.8 |
| 20260902111030 | 75 | 192 | 0.0 | 12.0 | 0.00 | 0.00 | 0.00 | 89 | 1015.0 |
| 20260902110530 | 75 | 192 | 0.0 | 12.0 | 0.00 | 0.00 | 0.00 | 89 | 1014.7 |
| 20260902110030 | 75 | 192 | 0.0 | 12.0 | 0.00 | 0.00 | 0.00 | 89 | 1015.1 |
| 20260902105530 | 75 | 192 | 0.0 | 12.0 | 0.00 | 0.00 | 0.00 | 89 | 1014.8 |
| 20260902105030 | 75 | 192 | 0.0 | 12.0 | 0.00 | 0.00 | 0.00 | 88 | 1015.0 |
| 20260902104530 | 75 | 192 | 0.0 | 12.0 | 0.00 | 0.00 | 0.00 | 88 | 1014.8 |
| 20260902104030 | 76 | 192 | 0.0 | 12.0 | 0.00 | 0.00 | 0.00 | 88 | 1015.1 |
| 20260902103015 | 76 | 192 | 0.0 | 12.0 | 0.00 | 0.00 | 0.00 | 88 | 1014.8 |
| 20260902102515 | 76 | 192 | 0.0 | 12.0 | 0.00 | 0.00 | 0.00 | 88 | 1014.7 |
| 20260902102015 | 76 | 192 | 0.0 | 12.0 | 0.00 | 0.00 | 0.00 | 88 | 1014.6 |
| 20260902101515 | 76 | 192 | 1.0 | 12.0 | 0.00 | 0.00 | 0.00 | 88 | 1014.8 |
| 20260902101014 | 76 | 192 | 1.0 | 12.0 | 0.00 | 0.00 | 0.00 | 88 | 1014.8 |
| 20260902100514 | 76 | 192 | 0.0 | 12.0 | 0.00 | 0.00 | 0.00 | 88 | 1014.5 |
| 20260902100014 | 76 | 192 | 0.0 | 12.0 | 0.00 | 0.00 | 0.00 | 88 | 1014.5 |
| 20260902094958 | 76 | 192 | 1.0 | 12.0 | 0.00 | 0.00 | 0.00 | 87 | 1014.6 |
| 20260902094458 | 76 | 192 | 1.0 | 12.0 | 0.00 | 0.00 | 0.00 | 87 | 1014.7 |
| 20260902093958 | 76 | 192 | 0.0 | 12.0 | 0.00 | 0.00 | 0.00 | 87 | 1014.7 |
| 20260902093458 | 76 | 192 | 0.0 | 12.0 | 0.00 | 0.00 | 0.00 | 87 | 1014.7 |
| 20260902092957 | 76 | 192 | 0.0 | 12.0 | 0.00 | 0.00 | 0.00 | 87 | 1014.3 |
| 20260902092457 | 76 | 192 | 1.0 | 12.0 | 0.00 | 0.00 | 0.00 | 87 | 1014.4 |
| 20260902091957 | 76 | 192 | 0.0 | 12.0 | 0.00 | 0.00 | 0.00 | 87 | 1014.5 |
| 20260902091457 | 77 | 192 | 0.0 | 12.0 | 0.00 | 0.00 | 0.00 | 87 | 1014.5 |
| 20260902090957 | 77 | 192 | 1.0 | 12.0 | 0.00 | 0.00 | 0.00 | 87 | 1014.4 |
| 20260902090456 | 77 | 192 | 0.0 | 12.0 | 0.00 | 0.00 | 0.00 | 87 | 1014.2 |
| 20260902085441 | 77 | 192 | 0.0 | 12.0 | 0.00 | 0.00 | 0.00 | 87 | 1014.5 |
| 20260902084424 | 77 | 192 | 1.0 | 12.0 | 0.00 | 0.00 | 0.00 | 87 | 1014.2 |
| 20260902083924 | 77 | 191 | 1.0 | 12.0 | 0.00 | 0.00 | 0.00 | 87 | 1014.3 |
| 20260902083423 | 77 | 191 | 1.0 | 12.0 | 0.00 | 0.00 | 0.00 | 87 | 1014.3 |
| 20260902082923 | 77 | 190 | 0.0 | 12.0 | 0.00 | 0.00 | 0.00 | 87 | 1014.3 |
| 20260902082422 | 77 | 190 | 1.0 | 12.0 | 0.00 | 0.00 | 0.00 | 87 | 1014.4 |
| 20260902081921 | 77 | 190 | 1.0 | 12.0 | 0.00 | 0.00 | 0.00 | 87 | 1014.2 |
| 20260902081420 | 77 | 190 | 0.0 | 12.0 | 0.00 | 0.00 | 0.00 | 87 | 1014.2 |
| 20260902080405 | 77 | 190 | 0.0 | 12.0 | 0.00 | 0.00 | 0.00 | 87 | 1014.1 |
| 20260902075905 | 77 | 190 | 0.0 | 12.0 | 0.00 | 0.00 | 0.00 | 86 | 1013.9 |
| 20260902075405 | 77 | 190 | 0.0 | 12.0 | 0.00 | 0.00 | 0.00 | 86 | 1014.2 |
| 20260902074905 | 77 | 190 | 0.0 | 12.0 | 0.00 | 0.00 | 0.00 | 86 | 1014.1 |
| 20260902074405 | 78 | 190 | 0.0 | 12.0 | 0.00 | 0.00 | 0.00 | 86 | 1014.1 |
| 20260902073905 | 78 | 190 | 0.0 | 12.0 | 0.00 | 0.00 | 0.00 | 86 | 1014.0 |
| 20260902073405 | 78 | 190 | 0.0 | 12.0 | 0.00 | 0.00 | 0.00 | 86 | 1014.1 |
| 20260902071319 | 78 | 190 | 0.0 | 12.0 | 0.00 | 0.00 | 0.00 | 86 | 1014.2 |
| 20260902070819 | 78 | 190 | 0.0 | 12.0 | 0.00 | 0.00 | 0.00 | 86 | 1014.2 |
| 20260902070318 | 78 | 189 | 0.0 | 12.0 | 0.00 | 0.00 | 0.00 | 86 | 1014.3 |
| 20260902065818 | 78 | 189 | 0.0 | 12.0 | 0.00 | 0.00 | 0.00 | 86 | 1014.1 |
| 20260902065317 | 78 | 189 | 0.0 | 12.0 | 0.00 | 0.00 | 0.00 | 86 | 1014.1 |
| 20260902064301 | 78 | 189 | 0.0 | 12.0 | 0.00 | 0.00 | 0.00 | 86 | 1014.1 |
| 20260902063800 | 78 | 189 | 0.0 | 12.0 | 0.00 | 0.00 | 0.00 | 85 | 1014.1 |
| 20260902063259 | 79 | 189 | 0.0 | 12.0 | 0.00 | 0.00 | 0.00 | 85 | 1014.2 |
| 20260902062758 | 79 | 189 | 0.0 | 12.0 | 0.00 | 0.00 | 0.00 | 85 | 1014.1 |
| 20260902062257 | 79 | 189 | 0.0 | 12.0 | 0.00 | 0.00 | 0.00 | 85 | 1014.3 |
| 20260902061756 | 79 | 189 | 0.0 | 12.0 | 0.00 | 0.00 | 0.00 | 85 | 1014.4 |
| 20260902061256 | 79 | 189 | 0.0 | 12.0 | 0.00 | 0.00 | 0.00 | 85 | 1014.0 |
| 20260902055724 | 79 | 189 | 0.0 | 12.0 | 0.00 | 0.00 | 0.00 | 85 | 1014.4 |
| 20260902055223 | 79 | 189 | 0.0 | 12.0 | 0.00 | 0.00 | 0.00 | 85 | 1014.5 |
| 20260902054207 | 79 | 189 | 1.0 | 12.0 | 0.00 | 0.00 | 0.00 | 85 | 1014.2 |
| 20260902053707 | 79 | 189 | 1.0 | 12.0 | 0.00 | 0.00 | 0.00 | 85 | 1014.1 |
| 20260902053206 | 80 | 189 | 0.0 | 12.0 | 0.00 | 0.00 | 0.00 | 85 | 1014.1 |
| 20260902052706 | 80 | 189 | 0.0 | 12.0 | 0.00 | 0.00 | 0.00 | 85 | 1014.3 |
| 20260902052206 | 80 | 189 | 0.0 | 12.0 | 0.00 | 0.00 | 0.00 | 84 | 1014.2 |
| 20260902051706 | 80 | 189 | 0.0 | 12.0 | 0.00 | 0.00 | 0.00 | 84 | 1014.0 |
| 20260902051206 | 80 | 189 | 0.0 | 12.0 | 0.00 | 0.00 | 0.00 | 84 | 1014.0 |
| 20260902050705 | 80 | 189 | 0.0 | 12.0 | 0.00 | 0.00 | 0.00 | 84 | 1014.2 |
| 20260902050205 | 80 | 189 | 0.0 | 12.0 | 0.00 | 0.00 | 0.00 | 84 | 1014.2 |
| 20260902045705 | 80 | 189 | 0.0 | 12.0 | 0.00 | 0.00 | 0.00 | 84 | 1014.1 |
| 20260902045204 | 80 | 189 | 0.0 | 12.0 | 0.00 | 0.00 | 0.00 | 84 | 1014.3 |
| 20260902044147 | 81 | 189 | 1.0 | 12.0 | 0.00 | 0.00 | 0.00 | 83 | 1014.1 |
| 20260902043131 | 81 | 186 | 1.0 | 12.0 | 0.00 | 0.00 | 0.00 | 83 | 1014.3 |
| 20260902042631 | 81 | 186 | 1.0 | 12.0 | 0.00 | 0.00 | 0.00 | 83 | 1014.1 |
| 20260902041058 | 81 | 181 | 1.0 | 12.0 | 0.00 | 0.00 | 0.00 | 82 | 1014.3 |
| 20260902040558 | 82 | 180 | 1.0 | 12.0 | 0.00 | 0.00 | 0.00 | 82 | 1014.2 |
| 20260902040058 | 82 | 178 | 0.0 | 12.0 | 0.00 | 0.00 | 0.00 | 82 | 1014.1 |
| 20260902035558 | 82 | 177 | 1.0 | 12.0 | 0.00 | 0.00 | 0.00 | 82 | 1014.2 |
| 20260902034542 | 82 | 180 | 1.0 | 12.0 | 0.00 | 0.00 | 0.00 | 81 | 1014.4 |
| 20260902034041 | 82 | 183 | 1.0 | 12.0 | 0.00 | 0.00 | 0.00 | 81 | 1014.2 |
| 20260902033025 | 83 | 180 | 1.0 | 12.0 | 0.00 | 0.00 | 0.00 | 81 | 1014.2 |
| 20260902032525 | 83 | 184 | 2.0 | 12.0 | 0.00 | 0.00 | 0.00 | 81 | 1014.3 |
| 20260902032024 | 83 | 184 | 1.0 | 12.0 | 0.00 | 0.00 | 0.00 | 81 | 1014.2 |
| 20260902031524 | 83 | 182 | 1.0 | 12.0 | 0.00 | 0.00 | 0.00 | 80 | 1014.3 |
| 20260902031024 | 83 | 177 | 1.0 | 12.0 | 0.00 | 0.00 | 0.00 | 80 | 1014.3 |
| 20260902030524 | 83 | 177 | 1.0 | 12.0 | 0.00 | 0.00 | 0.00 | 80 | 1014.2 |
| 20260902030024 | 83 | 178 | 1.0 | 12.0 | 0.00 | 0.00 | 0.00 | 80 | 1014.1 |
| 20260902025524 | 83 | 189 | 1.0 | 12.0 | 0.00 | 0.00 | 0.00 | 79 | 1014.3 |
| 20260902025024 | 84 | 188 | 2.0 | 12.0 | 0.00 | 0.00 | 0.00 | 79 | 1014.4 |
| 20260902024524 | 84 | 184 | 2.0 | 12.0 | 0.00 | 0.00 | 0.00 | 79 | 1014.6 |
| 20260902023509 | 84 | 174 | 1.0 | 12.0 | 0.00 | 0.00 | 0.00 | 79 | 1014.2 |
| 20260902023009 | 84 | 177 | 1.0 | 12.0 | 0.00 | 0.00 | 0.00 | 79 | 1014.3 |
| 20260902022509 | 84 | 179 | 0.0 | 12.0 | 0.00 | 0.00 | 0.00 | 79 | 1014.2 |
| 20260902022009 | 84 | 177 | 1.0 | 12.0 | 0.00 | 0.00 | 0.00 | 78 | 1014.1 |
| 20260902021509 | 84 | 180 | 1.0 | 12.0 | 0.00 | 0.00 | 0.00 | 78 | 1014.2 |
| 20260902021009 | 85 | 180 | 1.0 | 12.0 | 0.00 | 0.00 | 0.00 | 78 | 1014.0 |
| 20260902020509 | 85 | 180 | 1.0 | 12.0 | 0.00 | 0.00 | 0.00 | 78 | 1014.1 |
| 20260902020009 | 85 | 182 | 1.0 | 12.0 | 0.00 | 0.00 | 0.00 | 78 | 1014.2 |
| 20260902014439 | 85 | 181 | 1.0 | 12.0 | 0.00 | 0.00 | 0.00 | 78 | 1013.9 |
| 20260902013939 | 85 | 190 | 1.0 | 12.0 | 0.00 | 0.00 | 0.00 | 77 | 1013.9 |
| 20260902013438 | 85 | 189 | 1.0 | 12.0 | 0.00 | 0.00 | 0.00 | 77 | 1013.9 |
| 20260902012937 | 85 | 188 | 1.0 | 12.0 | 0.00 | 0.00 | 0.00 | 77 | 1013.7 |
| 20260902012436 | 85 | 188 | 1.0 | 12.0 | 0.00 | 0.00 | 0.00 | 77 | 1013.7 |
| 20260902011419 | 86 | 190 | 2.0 | 12.0 | 0.00 | 0.00 | 0.00 | 77 | 1013.9 |
| 20260902010918 | 86 | 195 | 2.0 | 12.0 | 0.00 | 0.00 | 0.00 | 76 | 1013.6 |
| 20260902010417 | 86 | 200 | 2.0 | 12.0 | 0.00 | 0.00 | 0.00 | 76 | 1013.3 |
| 20260902005916 | 86 | 197 | 2.0 | 12.0 | 0.00 | 0.00 | 0.00 | 76 | 1013.2 |
| 20260902005415 | 86 | 195 | 1.0 | 12.0 | 0.00 | 0.00 | 0.00 | 75 | 1013.4 |
| 20260902004915 | 87 | 195 | 1.0 | 12.0 | 0.00 | 0.00 | 0.00 | 75 | 1013.3 |
| 20260902004415 | 87 | 195 | 1.0 | 12.0 | 0.00 | 0.00 | 0.00 | 74 | 1013.3 |
| 20260902003914 | 87 | 195 | 1.0 | 12.0 | 0.00 | 0.00 | 0.00 | 74 | 1013.4 |
| 20260902002341 | 88 | 190 | 1.0 | 12.0 | 0.00 | 0.00 | 0.00 | 72 | 1013.3 |
| 20260902001840 | 88 | 191 | 1.0 | 12.0 | 0.00 | 0.00 | 0.00 | 71 | 1013.4 |
| 20260902001340 | 89 | 195 | 2.0 | 12.0 | 0.00 | 0.00 | 0.00 | 70 | 1013.4 |
| 20260902000839 | 89 | 199 | 2.0 | 12.0 | 0.00 | 0.00 | 0.00 | 70 | 1013.3 |
| 20260902000338 | 89 | 200 | 2.0 | 12.0 | 0.00 | 0.00 | 0.00 | 69 | 1013.4 |
| 20260901235838 | 90 | 198 | 2.0 | 12.0 | 0.00 | 0.00 | 0.00 | 68 | 1013.4 |
| 20260901235338 | 90 | 204 | 2.0 | 12.0 | 0.00 | 0.00 | 0.00 | 67 | 1013.4 |
| 20260901234837 | 91 | 211 | 1.0 | 12.0 | 0.00 | 0.00 | 0.00 | 67 | 1013.2 |
| 20260901233821 | 91 | 204 | 3.0 | 12.0 | 0.00 | 0.00 | 0.00 | 65 | 1013.2 |
| 20260901233320 | 92 | 198 | 4.0 | 12.0 | 0.00 | 0.00 | 0.00 | 65 | 1013.7 |
| 20260901232820 | 92 | 205 | 2.0 | 12.0 | 0.00 | 0.00 | 0.00 | 64 | 1011.6 |
| 20260901231804 | 93 | 194 | 2.0 | 12.0 | 0.00 | 0.00 | 0.00 | 63 | 1011.6 |
| 20260901231304 | 93 | 198 | 2.0 | 12.0 | 0.00 | 0.00 | 0.00 | 63 | 1011.9 |
| 20260901230804 | 93 | 193 | 3.0 | 12.0 | 0.00 | 0.00 | 0.00 | 62 | 1012.7 |
| 20260901230304 | 93 | 181 | 2.0 | 12.0 | 0.00 | 0.00 | 0.00 | 61 | 1013.2 |
| 20260901225804 | 94 | 197 | 3.0 | 12.0 | 0.00 | 0.00 | 0.00 | 60 | 1013.4 |
| 20260901225306 | 94 | 186 | 2.0 | 12.0 | 0.00 | 0.00 | 0.00 | 59 | 1013.7 |
| 20260901224803 | 94 | 180 | 3.0 | 12.0 | 0.00 | 0.00 | 0.00 | 59 | 1014.1 |
| 20260901224302 | 94 | 200 | 3.0 | 12.0 | 0.00 | 0.00 | 0.00 | 58 | 1014.2 |
| 20260901223802 | 95 | 178 | 3.0 | 12.0 | 0.00 | 0.00 | 0.00 | 58 | 1014.5 |
| 20260901223302 | 95 | 193 | 4.0 | 12.0 | 0.00 | 0.00 | 0.00 | 57 | 1014.0 |
| 20260901222802 | 95 | 191 | 5.0 | 12.0 | 0.00 | 0.00 | 0.00 | 57 | 1014.2 |
| 20260901222306 | 95 | 200 | 3.0 | 12.0 | 0.00 | 0.00 | 0.00 | 56 | 1014.2 |
| 20260901221801 | 95 | 211 | 5.0 | 12.0 | 0.00 | 0.00 | 0.00 | 55 | 1014.1 |
| 20260901221301 | 95 | 196 | 4.0 | 12.0 | 0.00 | 0.00 | 0.00 | 56 | 1014.0 |
| 20260901220800 | 95 | 206 | 5.0 | 12.0 | 0.00 | 0.00 | 0.00 | 55 | 1013.9 |
| 20260901220259 | 95 | 192 | 4.0 | 12.0 | 0.00 | 0.00 | 0.00 | 55 | 1013.8 |
| 20260901215758 | 95 | 210 | 5.0 | 12.0 | 0.00 | 0.00 | 0.00 | 55 | 1013.9 |
| 20260901215258 | 96 | 206 | 4.0 | 12.0 | 0.00 | 0.00 | 0.00 | 54 | 1013.6 |
| 20260901214755 | 96 | 214 | 5.0 | 12.0 | 0.00 | 0.00 | 0.00 | 54 | 1013.7 |
| 20260901214254 | 96 | 212 | 5.0 | 12.0 | 0.00 | 0.00 | 0.00 | 54 | 1014.0 |
| 20260901213238 | 96 | 197 | 6.0 | 12.0 | 0.00 | 0.00 | 0.00 | 54 | 1014.6 |
| 20260901212223 | 97 | 215 | 4.0 | 12.0 | 0.00 | 0.00 | 0.00 | 53 | 1013.9 |
| 20260901211722 | 97 | 181 | 5.0 | 12.0 | 0.00 | 0.00 | 0.00 | 54 | 1014.2 |
| 20260901211222 | 97 | 226 | 5.0 | 12.0 | 0.00 | 0.00 | 0.00 | 53 | 1013.3 |
| 20260901210721 | 97 | 204 | 5.0 | 12.0 | 0.00 | 0.00 | 0.00 | 53 | 1013.3 |
| 20260901210220 | 96 | 211 | 5.0 | 12.0 | 0.00 | 0.00 | 0.00 | 54 | 1013.5 |
| 20260901205203 | 96 | 211 | 6.0 | 12.0 | 0.00 | 0.00 | 0.00 | 53 | 1013.8 |
| 20260901204702 | 96 | 204 | 5.0 | 12.0 | 0.00 | 0.00 | 0.00 | 54 | 1013.6 |
| 20260901204201 | 97 | 218 | 7.0 | 13.0 | 0.00 | 0.00 | 0.00 | 52 | 1014.1 |
| 20260901203700 | 97 | 221 | 6.0 | 13.0 | 0.00 | 0.00 | 0.00 | 51 | 1013.6 |
| 20260901203159 | 97 | 207 | 7.0 | 13.0 | 0.00 | 0.00 | 0.00 | 52 | 1013.7 |
| 20260901202658 | 97 | 189 | 4.0 | 13.0 | 0.00 | 0.00 | 0.00 | 53 | 1013.9 |
| 20260901202158 | 96 | 212 | 6.0 | 13.0 | 0.00 | 0.00 | 0.00 | 52 | 1013.6 |
| 20260901201658 | 97 | 205 | 7.0 | 13.0 | 0.00 | 0.00 | 0.00 | 52 | 1013.7 |
| 20260901200642 | 97 | 223 | 7.0 | 12.0 | 0.00 | 0.00 | 0.00 | 52 | 1013.8 |
| 20260901200142 | 97 | 169 | 6.0 | 12.0 | 0.00 | 0.00 | 0.00 | 52 | 1013.8 |
| 20260901195641 | 97 | 192 | 5.0 | 12.0 | 0.00 | 0.00 | 0.00 | 52 | 1013.7 |
| 20260901195140 | 97 | 211 | 6.0 | 12.0 | 0.00 | 0.00 | 0.00 | 51 | 1013.7 |
| 20260901194639 | 97 | 206 | 6.0 | 13.0 | 0.00 | 0.00 | 0.00 | 51 | 1014.0 |
| 20260901194138 | 97 | 196 | 5.0 | 13.0 | 0.00 | 0.00 | 0.00 | 52 | 1013.7 |
| 20260901193121 | 97 | 217 | 6.0 | 13.0 | 0.00 | 0.00 | 0.00 | 52 | 1014.3 |
| 20260901192621 | 97 | 201 | 6.0 | 12.0 | 0.00 | 0.00 | 0.00 | 50 | 1014.2 |
| 20260901192120 | 97 | 224 | 6.0 | 14.0 | 0.00 | 0.00 | 0.00 | 51 | 1014.1 |
| 20260901185517 | 97 | 214 | 7.0 | 14.0 | 0.00 | 0.00 | 0.00 | 50 | 1014.3 |
| 20260901184501 | 97 | 226 | 7.0 | 13.0 | 0.00 | 0.00 | 0.00 | 51 | 1014.6 |
| 20260901184001 | 96 | 219 | 5.0 | 13.0 | 0.00 | 0.00 | 0.00 | 52 | 1014.5 |
| 20260901183501 | 96 | 203 | 6.0 | 13.0 | 0.00 | 0.00 | 0.00 | 53 | 1014.4 |
| 20260901183001 | 97 | 216 | 6.0 | 12.0 | 0.00 | 0.00 | 0.00 | 52 | 1014.5 |
| 20260901182501 | 97 | 218 | 5.0 | 12.0 | 0.00 | 0.00 | 0.00 | 51 | 1014.6 |
| 20260901182001 | 96 | 202 | 6.0 | 13.0 | 0.00 | 0.00 | 0.00 | 53 | 1014.8 |
| 20260901181501 | 96 | 206 | 3.0 | 13.0 | 0.00 | 0.00 | 0.00 | 53 | 1014.3 |
| 20260901181001 | 96 | 210 | 7.0 | 13.0 | 0.00 | 0.00 | 0.00 | 52 | 1014.7 |
| 20260901180501 | 96 | 202 | 6.0 | 13.0 | 0.00 | 0.00 | 0.00 | 53 | 1014.7 |
| 20260901180001 | 96 | 184 | 5.0 | 13.0 | 0.00 | 0.00 | 0.00 | 54 | 1014.6 |
| 20260901175501 | 96 | 198 | 5.0 | 13.0 | 0.00 | 0.00 | 0.00 | 53 | 1014.7 |
| 20260901173928 | 95 | 224 | 6.0 | 12.0 | 0.00 | 0.00 | 0.00 | 55 | 1014.7 |
| 20260901173428 | 95 | 228 | 6.0 | 12.0 | 0.00 | 0.00 | 0.00 | 55 | 1014.8 |
| 20260901172414 | 94 | 218 | 6.0 | 13.0 | 0.00 | 0.00 | 0.00 | 55 | 1014.8 |
| 20260901171913 | 94 | 213 | 6.0 | 13.0 | 0.00 | 0.00 | 0.00 | 55 | 1014.8 |
| 20260901171412 | 94 | 185 | 5.0 | 13.0 | 0.00 | 0.00 | 0.00 | 56 | 1015.0 |
| 20260901170912 | 94 | 190 | 6.0 | 12.0 | 0.00 | 0.00 | 0.00 | 57 | 1014.7 |
| 20260901170412 | 94 | 187 | 5.0 | 12.0 | 0.00 | 0.00 | 0.00 | 56 | 1015.0 |
| 20260901165911 | 93 | 217 | 5.0 | 12.0 | 0.00 | 0.00 | 0.00 | 58 | 1014.9 |